TimeEDT,TemperatureF,Dew PointF,Humidity,Sea Level PressureIn,VisibilityMPH,Wind Direction,Wind SpeedMPH,Gust SpeedMPH,PrecipitationIn,Events,Conditions,WindDirDegrees,DateUTC
12:04 AM,73.4,71.6,94,30.30,10.0,Calm,Calm,-,0.00,Rain,Light Rain,0,2013-07-14 04:04:00
12:15 AM,73.4,71.6,94,30.29,10.0,Calm,Calm,-,0.00,Rain,Light Rain,0,2013-07-14 04:15:00
12:51 AM,73.9,71.1,91,30.29,6.0,SW,3.5,-,0.00,Rain,Light Rain,220,2013-07-14 04:51:00
1:38 AM,73.4,71.6,94,30.28,9.0,SW,5.8,-,0.00,,Overcast,230,2013-07-14 05:38:00
1:51 AM,73.0,71.1,93,30.28,9.0,SW,3.5,-,0.00,,Mostly Cloudy,220,2013-07-14 05:51:00
2:12 AM,73.4,71.6,94,30.28,8.0,Calm,Calm,-,N/A,,Mostly Cloudy,0,2013-07-14 06:12:00
2:51 AM,73.0,71.1,93,30.29,6.0,Calm,Calm,-,N/A,,Overcast,0,2013-07-14 06:51:00
3:51 AM,73.0,71.1,93,30.29,7.0,Calm,Calm,-,N/A,,Overcast,0,2013-07-14 07:51:00
4:34 AM,73.4,71.6,94,30.28,9.0,Calm,Calm,-,N/A,,Overcast,0,2013-07-14 08:34:00
4:51 AM,73.0,71.1,93,30.28,9.0,Calm,Calm,-,N/A,,Overcast,0,2013-07-14 08:51:00
5:51 AM,73.0,71.1,93,30.29,3.0,North,3.5,-,N/A,,Overcast,360,2013-07-14 09:51:00
6:51 AM,73.0,71.1,93,30.31,6.0,Calm,Calm,-,N/A,,Mostly Cloudy,0,2013-07-14 10:51:00
6:58 AM,73.4,71.6,94,30.31,6.0,Calm,Calm,-,N/A,,Mostly Cloudy,0,2013-07-14 10:58:00
7:51 AM,77.0,72.0,84,30.31,10.0,North,3.5,-,N/A,,Mostly Cloudy,350,2013-07-14 11:51:00
8:51 AM,80.1,72.0,76,30.31,10.0,Calm,Calm,-,N/A,,Scattered Clouds,0,2013-07-14 12:51:00
9:51 AM,82.9,72.0,69,30.30,10.0,WNW,5.8,-,N/A,,Scattered Clouds,300,2013-07-14 13:51:00
10:51 AM,84.0,71.1,65,30.30,10.0,WSW,6.9,-,N/A,,Mostly Cloudy,250,2013-07-14 14:51:00
11:51 AM,87.1,71.1,59,30.28,10.0,WNW,4.6,-,N/A,,Mostly Cloudy,290,2013-07-14 15:51:00
12:51 PM,89.1,68.0,50,30.27,10.0,West,9.2,-,N/A,,Scattered Clouds,260,2013-07-14 16:51:00
1:51 PM,89.1,69.1,52,30.25,10.0,WSW,8.1,-,N/A,,Mostly Cloudy,250,2013-07-14 17:51:00
2:51 PM,89.1,69.1,52,30.24,10.0,WSW,6.9,-,N/A,,Mostly Cloudy,250,2013-07-14 18:51:00
3:51 PM,90.0,68.0,48,30.22,10.0,West,5.8,-,N/A,,Mostly Cloudy,280,2013-07-14 19:51:00
4:51 PM,90.0,69.1,50,30.22,10.0,NW,5.8,-,N/A,,Scattered Clouds,310,2013-07-14 20:51:00
5:51 PM,90.0,68.0,48,30.21,10.0,West,6.9,-,N/A,,Scattered Clouds,270,2013-07-14 21:51:00
6:51 PM,87.1,70.0,57,30.21,10.0,WSW,8.1,-,N/A,,Mostly Cloudy,250,2013-07-14 22:51:00
7:51 PM,86.0,71.1,61,30.20,10.0,WSW,6.9,-,N/A,,Scattered Clouds,250,2013-07-14 23:51:00
8:51 PM,82.9,71.1,67,30.21,10.0,WSW,5.8,-,N/A,,Scattered Clouds,250,2013-07-15 00:51:00
9:51 PM,80.1,72.0,76,30.22,10.0,WNW,3.5,-,N/A,,Scattered Clouds,290,2013-07-15 01:51:00
10:51 PM,77.0,72.0,84,30.22,10.0,Calm,Calm,-,N/A,,Scattered Clouds,0,2013-07-15 02:51:00
11:51 PM,79.0,72.0,79,30.21,10.0,SSW,4.6,-,N/A,,Scattered Clouds,210,2013-07-15 03:51:00